Regional Weather Roundup
Issued by NWS

Home | Current Version | Previous Version | Graphics & Text | Print | Product List | Glossary On
Versions: 1 2 3 4 5 6 7 8 9 10 11 12 13 14 15 16 17 18 19 20 21 22 23 24 25 26 27 28 29 30 31 32 33 34 35 36 37 38 39 40 41 42 43 44 45 46 47 48 49 50
906
ASUS43 KTOP 282359
RWRKS

WEATHER ROUNDUP FOR KANSAS
NATIONAL WEATHER SERVICE GOODLAND KS
700 PM CDT TUE MAR 28 2017

NOTE:  "FAIR" INDICATES FEW OR NO CLOUDS BELOW 12,000 FEET WITH NO
SIGNIFICANT WEATHER AND/OR OBSTRUCTIONS TO VISIBILITY.

KSZ001>006-013>018-027>032-041>047-290100-
NORTHWEST KANSAS

CITY           SKY/WX    TMP DP  RH WIND       PRES   REMARKS
GOODLAND       LGT RAIN  40  39  97 E13       29.94S WCI  32
6HR MIN TEMP:  40; 6HR MAX TEMP:  46; 6HR PCP:  0.63;

HAYS           RAIN      47  46  97 N6        29.99R FOG
HILL CITY      RAIN      46  46 100 NE13      29.98F FOG
6HR MIN TEMP:  46; 6HR MAX TEMP:  50; 6HR PCP:  0.74;

RUSSELL        TSTM      47  45  93 N6        29.97R FOG
6HR MIN TEMP:  47; 6HR MAX TEMP:  55; 6HR PCP:  0.16;

$$

KSZ061>065-074>080-084>089-290100-
SOUTHWEST KANSAS

CITY           SKY/WX    TMP DP  RH WIND       PRES   REMARKS
DODGE CITY     RAIN      46  45  96 E21G30    29.82F FOG
6HR MIN TEMP:  46; 6HR MAX TEMP:  47; 6HR PCP:  1.28;

ELKHART          N/A     44  37  76 E13         N/A
GARDEN CITY    CLOUDY    46  44  93 NE18G24   29.84S
6HR MIN TEMP:  45; 6HR MAX TEMP:  46; 6HR PCP:  1.19;

GREAT BEND     RAIN      48  47  96 NW7       29.96F FOG
LIBERAL        CLOUDY    46  41  81 E14       29.81S
$$

KSZ066>073-081>083-090>101-290100-
SOUTHEAST KANSAS

CITY           SKY/WX    TMP DP  RH WIND       PRES   REMARKS
CHANUTE        MOCLDY    61  49  64 NE12      29.92R
6HR MIN TEMP:  55; 6HR MAX TEMP:  63;

COFFEYVILLE    CLEAR     62  52  69 NE13      29.86F
6HR MIN TEMP:  55; 6HR MAX TEMP:  65;

MEDICINE LODGE   N/A     49  47  93 N14       29.85S
NEWTON         CLOUDY    51  48  89 E20G28    29.83F
PARSONS        CLEAR     62  51  67 VRB7      29.89F
6HR MIN TEMP:  54; 6HR MAX TEMP:  65;

WICHITA INTL   CLOUDY    54  48  80 E20G31    29.84F
6HR MIN TEMP:  52; 6HR MAX TEMP:  55; 6HR PCP: TRACE;

WICHITA JABRA  CLOUDY    54  48  80 E23G35    29.82F
6HR MIN TEMP:  52; 6HR MAX TEMP:  54; 6HR PCP: TRACE;

WINFIELD       CLOUDY    57  48  72 E14G22    29.85F
6HR MIN TEMP:  53; 6HR MAX TEMP:  57;

$$

KSZ007>012-019>026-033>040-048>060-102>105-290100-
NORTHEAST KANSAS

CITY           SKY/WX    TMP DP  RH WIND       PRES   REMARKS
CONCORDIA      CLOUDY    50  44  80 NE12      29.99F
6HR MIN TEMP:  50; 6HR MAX TEMP:  56;

EMPORIA        CLOUDY    53  50  89 NE15      29.92F
6HR MIN TEMP:  52; 6HR MAX TEMP:  55;

LAWRENCE       CLOUDY    54  51  90 NE14      30.01S
6HR MIN TEMP:  53; 6HR MAX TEMP:  57;

MANHATTAN      LGT RAIN  53  48  83 NE12      29.97F
6HR MIN TEMP:  53; 6HR MAX TEMP:  57; 6HR PCP: TRACE;

OLATHE IND     CLOUDY    53  50  89 E7G17     30.00S
6HR MIN TEMP:  53; 6HR MAX TEMP:  55; 6HR PCP: TRACE;

OLATHE EXE     CLOUDY    52  51  97 NE12      29.99F
6HR MIN TEMP:  51; 6HR MAX TEMP:  53;

SALINA         CLOUDY    53  48  83 NE16      29.88F
6HR MIN TEMP:  53; 6HR MAX TEMP:  57; 6HR PCP:  0.05;

TOPEKA BILLARD CLOUDY    54  51  90 NE12      29.99F
6HR MIN TEMP:  54; 6HR MAX TEMP:  56;

TOPEKA FORBES  CLOUDY    54  51  90 NE8       29.99F FOG
6HR MIN TEMP:  54; 6HR MAX TEMP:  57;

$$




USA.gov is the U.S. government's official web portal to all federal, state and local government web resources and services.